Regional Weather Roundup
Issued by NWS

Home | Current Version | Previous Version | Text Only | Print | Product List | Glossary Off
Versions: 1 2 3 4 5 6 7 8 9 10 11 12 13 14 15 16 17 18 19 20 21 22 23 24 25 26 27 28 29 30 31 32 33 34 35 36 37 38 39 40 41 42 43 44 45 46 47 48 49 50

692
ASUS43 KMPX 271901
RWRMN
WEATHER ROUNDUP FOR MINNESOTA
NATIONAL WEATHER SERVICE TWIN CITIES/CHANHASSEN MN
200 PM CDT THU APR 27 2017


NOTE: "FAIR" INDICATES FEW OR NO CLOUDS BELOW 12,000 FEET WITH NO
SIGNIFICANT WEATHER AND/OR OBSTRUCTIONS TO VISIBILITY. N/A MEANS
CURRENT SKY AND/OR WEATHER CONDITIONS ARE NOT AVAILABLE.

MNZ060>063-068>070-272000-
   Twin Cities Metro

CITY           SKY/WX    TMP DP  RH WIND       PRES   REMARKS
TWIN CITIES    CLOUDY    34  25  69 NW17      29.59R WCI  23
ST PAUL        CLOUDY    34  26  72 W13G22    29.60R WCI  25
CRYSTAL        CLOUDY    33  23  66 NW17      29.58R WCI  22
BLAINE         CLOUDY    34  27  75 NW17      29.58R WCI  23
LAKEVILLE      CLOUDY    34  28  80 W14G21    29.59R WCI  24
EDEN PRAIRIE   CLOUDY    35  25  66 NW13      29.58S WCI  26
SOUTH ST PAUL  CLOUDY    35  26  71 NW12      29.59R WCI  26
LAKE ELMO      CLOUDY    34  28  80 W10       29.59R WCI  26
$$
MNZ001>005-007-008-013>017-022>024-027-028-272000-
   Northwest Minnesota

CITY           SKY/WX    TMP DP  RH WIND       PRES   REMARKS
BEMIDJI        CLOUDY    28  20  74 NW12      29.60S WCI  17
HALLOCK        PTSUNNY   41  28  60 N16       29.66F
ROSEAU         CLOUDY    30  25  80 N13       29.65S WCI  20
WARROAD        CLOUDY    28  25  86 N8        29.65F WCI  20
THIEF RVR FALL CLOUDY    31  24  75 N13       29.67S WCI  21
CROOKSTON      CLOUDY    32  25  74 N10       29.69S WCI  24
FOSSTON        CLOUDY    30  19  64 N17       29.64S WCI  18
DETROIT LAKES  CLOUDY    30  23  74 N17       29.64S WCI  18
MOORHEAD       CLOUDY    30  25  80 NW10      29.70S WCI  21
PARK RAPIDS    CLOUDY    29  18  63 NW15      29.59S WCI  18
MAHNOMEN       CLOUDY    29  22  74 N6        29.64S WCI  23
$$
MNZ006-009>011-018-025>026-272000-
   North Central Minnesota

CITY           SKY/WX    TMP DP  RH WIND       PRES   REMARKS
BAUDETTE       CLOUDY    27  18  69 N18       29.60F WCI  14
FLAG ISLAND    LGT SNOW  27  21  80 N18       29.64S WCI  13
INTL FALLS     CLOUDY    27  17  66 N15       29.56F WCI  15
WASKISH        CLOUDY    28  19  69 N10G16    29.60F WCI  19
BIG FORK       CLOUDY    28  18  64 NW5       29.55S WCI  23
LONGVILLE      CLOUDY    28  19  69 NW8       29.57F WCI  20
GRAND RAPIDS   CLOUDY    27  19  72 NW16      29.56S WCI  15
CRANE LAKE     CLOUDY    25  18  74 N8G18     29.55R WCI  16
ORR            CLOUDY    27  14  59 NW9       29.51R WCI  17
COOK           CLOUDY    27  16  63 NW9G16    29.52R WCI  17
WALKER         CLOUDY    26  18  72 NW8G16    29.59S WCI  18
$$
MNZ012-019>021-037-272000-
   Northeast Minnesota

CITY           SKY/WX    TMP DP  RH WIND       PRES   REMARKS
DULUTH         CLOUDY    27  20  75 NW13      29.50R WCI  16
ELY            FLURRIES  25  16  68 N8G17     29.49R WCI  16
HIBBING        CLOUDY    27  18  69 NW17      29.52R WCI  14
EVELETH        CLOUDY    28  18  67 NW7       29.52R WCI  20
DULUTH HARBOR  CLOUDY    30  23  74 NW13      29.55R WCI  20
TWO HARBORS    CLOUDY    30  21  69 NW7       29.49R WCI  23
SILVER BAY     CLOUDY    28  21  74 CALM      29.47R
G MARAIS ARPRT SNOW      19  16  86 CALM      29.40S VSB 1/2
$$
MNZ029>031-032-039>041-046>048-054>057-064-272000-
   West Central Minnesota

CITY           SKY/WX    TMP DP  RH WIND       PRES   REMARKS
FERGUS FALLS   CLOUDY    28  23  80 N16G22    29.67S WCI  17
WHEATON        CLOUDY    34  23  64 NW20      29.71S WCI  22
MORRIS         CLOUDY    32  25  74 NW18      29.66R WCI  20
ALEXANDRIA     CLOUDY    29  21  72 NW13      29.63S WCI  19
ELBOW LAKE     CLOUDY    30  24  77 N15       29.66S WCI  19
WADENA         CLOUDY    28  23  80 NW9       29.61S WCI  20
GLENWOOD       PTSUNNY   30  23  74 NW18      29.63S WCI  18
APPLETON       CLOUDY    34  23  64 NW17      29.67F WCI  23
BENSON         CLOUDY    36  21  55 N16G23    29.67S
ORTONVILLE     CLOUDY    34  23  64 N17       29.68F WCI  23
MADISON        CLOUDY    37  27  65 NW17G25   29.68F
WILLMAR        CLOUDY    34  27  75 NW14      29.65R WCI  24
$$
MNZ033>034-036-042>043-049>051-058-059-272000-
   Central Minnesota

CITY           SKY/WX    TMP DP  RH WIND       PRES   REMARKS
ST CLOUD       CLOUDY    30  24  78 NW15      29.60S WCI  19
SAUK CENTRE    CLOUDY    29  23  76 NW15      29.62S WCI  18
PAYNESVILLE    CLOUDY    32  25  75 NW13G18   29.62S WCI  22
AITKIN         CLOUDY    30  19  64 W7        29.56R WCI  23
PINE RIVER     CLOUDY    27  21  80 NW9       29.63S WCI  17
BRAINERD       CLOUDY    28  20  71 NW15      29.59S WCI  16
STAPLES        CLOUDY    27  21  80 NW7       29.60F WCI  19
LONG PRAIRIE   CLOUDY    30  23  74 NW10      29.62S WCI  21
LITTLE FALLS   CLOUDY    30  21  69 NW13G18   29.61S WCI  20
LITCHFIELD     CLOUDY    34  27  75 NW14      29.62S WCI  24
BUFFALO        CLOUDY    33  24  70 W15G21    29.61S WCI  23
MAPLE LAKE     CLOUDY    33  27  78 W12G17    29.61R WCI  24
HUTCHINSON     CLOUDY    34  27  74 NW16      29.62S WCI  24
$$
MNZ037-044-045-052-053-272000-
   East Central Minnesota

CITY           SKY/WX    TMP DP  RH WIND       PRES   REMARKS
PRINCETON      CLOUDY    32  25  74 NW12G17   29.59R WCI  23
MORA           CLOUDY    30  23  74 NW10G18   29.58S WCI  21
CAMBRIDGE      CLOUDY    34  23  64 W12       29.57R WCI  25
RUSH CITY      CLOUDY    31  24  75 W8G16     29.58R WCI  24
MOOSE LAKE     CLOUDY    30  21  69 NW12      29.53S WCI  21
HINCKLEY       CLOUDY    30  25  80 W9        29.56S WCI  22
CLOQUET        CLOUDY    27  19  74 NW12G18   29.52S WCI  16
MCGREGOR       CLOUDY    28  21  74 NW8       29.56S WCI  20
$$
MNZ071>073-080-081-089-090-097-098-272000-
   Southwest Minnesota

CITY           SKY/WX    TMP DP  RH WIND       PRES   REMARKS
MONTEVIDEO     CLOUDY    34  25  69 N22       29.66F WCI  22
GRANITE FALLS  CLOUDY    36  27  70 W21       29.68F
CANBY          CLOUDY    36  27  70 W17G24    29.70R
MARSHALL       CLOUDY    35  25  66 NW21      29.67S WCI  24
REDWOOD FALLS  CLOUDY    34  23  64 NW14G24   29.65S WCI  25
OLIVIA         CLOUDY    34  30  86 NW17G23   29.64S WCI  23
PIPESTONE      CLOUDY    37  25  60 N18G24    29.66S
WINDOM         CLOUDY    34  27  75 NW15G26   29.66R WCI  24
WORTHINGTON    CLOUDY    35  28  75 NW20      29.66S WCI  24
JACKSON        CLOUDY    34  27  75 NW18      29.66S WCI  23
TRACY          CLOUDY    35  29  77 NW21      29.67S WCI  24
SLAYTON        CLOUDY    34  27  76 NW21      29.67R WCI  22
$$
MNZ065>067-074>077-082>085-091>093-272000-
   South Central Minnesota

CITY           SKY/WX    TMP DP  RH WIND       PRES   REMARKS
MANKATO        CLOUDY    34  28  79 W18G25    29.63R WCI  23
NEW ULM        CLOUDY    34  27  75 NW17G25   29.64S WCI  23
ST JAMES       CLOUDY    34  28  80 W22       29.66R WCI  22
FAIRMONT       CLOUDY    34  26  72 NW17G25   29.66  WCI  23
GLENCOE        CLOUDY    34  30  83 W13G23    29.61R WCI  25
FARIBAULT      CLOUDY    36  28  75 W16G22    29.61R
OWATONNA       CLOUDY    36  28  75 W18       29.61R
WASECA         CLOUDY    34  30  86 W16G22    29.63R WCI  23
ALBERT LEA     CLOUDY    36  28  75 W12G17    29.62R
$$
MNZ078>079-086>088-094>096-272000-
   Southeast Minnesota

CITY           SKY/WX    TMP DP  RH WIND       PRES   REMARKS
ROCHESTER      CLOUDY    36  31  82 W18       29.58R
RED WING       CLOUDY    37  25  60 NW10G21   29.58R
STANTON        CLOUDY    36  30  78 W13G21    29.58S
DODGE CENTER   CLOUDY    34  30  86 W17       29.59R WCI  23
WINONA         LGT RAIN  37  34  87 W9        29.59R
AUSTIN         CLOUDY    36  28  75 W20       29.61R
PRESTON        CLOUDY    36  30  79 W16       29.60R
$$
ABBREVIATIONS USED IN REMARKS
   TC - TEMPERATURES IN CELSIUS
  WCI - WIND CHILL INDEX
   HX - HEAT INDEX
  VSB - VISIBILITY
$$




USA.gov is the U.S. government's official web portal to all federal, state and local government web resources and services.